1498143600.56,15071,23.44,74304.3,16.53,-26.65,-26.29,0,*46
1498143601.81,15072,23.44,74306.0,16.51,-25.19,-24.83,0,*4D
1498143603.04,15073,23.44,74302.8,16.49,-25.03,-24.57,0,*47
1498143604.28,15074,23.44,74304.3,16.47,-26.39,-26.07,0,*43
1498143605.54,15075,23.44,74302.5,16.47,-23.33,-22.83,0,*45
1498143606.76,15076,23.44,74304.5,16.45,-22.03,-21.57,0,*4C
1498143608.06,15077,23.44,74304.0,16.47,-22.17,-21.87,0,*47
1498143609.3,15078,23.44,74306.0,16.49,-21.67,-21.17,0,*4B
1498143610.56,15079,23.44,74302.8,16.49,-22.77,-22.17,0,*4B
1498143611.77,15080,23.44,74300.3,16.49,-21.63,-21.17,0,*48
1498143612.98,15081,23.44,74306.5,16.53,-20.63,-20.09,0,*4D
1498143614.22,15082,23.44,74302.3,16.53,-19.99,-19.57,0,*40
1498143615.45,15083,23.44,74302.8,16.55,-20.63,-20.09,0,*49
1498143616.69,15084,23.44,74302.3,16.59,-20.89,-20.29,0,*44
1498143617.91,15085,23.44,74306.0,16.61,-20.15,-19.75,0,*48
1498143619.15,15086,23.44,74306.5,16.61,-21.23,-20.89,0,*46
1498143620.38,15087,23.44,74306.0,16.63,-21.77,-21.47,0,*47
1498143621.61,15088,23.44,74302.3,16.61,-21.93,-21.53,0,*45
1498143622.84,15089,23.44,74306.3,16.61,-22.57,-21.97,0,*47
1498143624.06,15090,23.44,74304.3,16.61,-20.89,-20.43,0,*46
1498143625.28,15091,23.44,74300.3,16.61,-19.91,-19.31,0,*4B
1498143626.53,15092,23.44,74302.3,16.65,-20.35,-19.85,0,*47
1498143627.76,15093,23.44,74304.5,16.65,-20.63,-20.19,0,*4A
1498143629.04,15094,23.44,74306.0,16.67,-20.79,-20.35,0,*4A
1498143630.29,15095,23.44,74306.5,16.67,-19.65,-19.07,0,*47
1498143631.53,15096,23.44,74304.8,16.71,-20.93,-20.59,0,*41
1498143632.75,15097,23.44,74302.5,16.69,-22.73,-22.41,0,*4E
1498143633.95,15098,23.44,74302.5,16.69,-21.39,-20.93,0,*41
1498143635.21,15099,23.44,74302.8,16.69,-22.47,-22.31,0,*40
1498143636.47,15100,23.44,74304.0,16.67,-21.93,-21.53,0,*42
1498143637.73,15101,23.44,74302.5,16.67,-22.53,-22.21,0,*4A
1498143638.94,15102,23.44,74304.8,16.65,-23.79,-23.13,0,*42
1498143640.21,15103,23.44,74310.0,16.63,-25.03,-24.67,0,*4A
1498143641.41,15104,23.44,74310.5,16.61,-25.19,-24.51,0,*41
1498143642.64,15105,23.44,74304.8,16.55,-26.61,-26.45,0,*4C
1498143643.9,15106,23.44,74300.3,16.51,-27.19,-27.03,0,*46
1498143645.19,15107,23.44,74300.3,16.47,-24.25,-23.95,0,*47
1498143646.45,15108,23.44,74300.8,16.47,-22.63,-22.17,0,*47
1498143647.67,15109,23.44,74302.5,16.47,-22.03,-21.73,0,*41
1498143648.92,15110,23.44,74302.5,16.45,-23.69,-23.49,0,*4D
1498143650.18,15111,23.44,74300.0,16.45,-23.03,-22.73,0,*48
1498143651.39,15112,23.44,74300.8,16.45,-22.41,-22.03,0,*4B
1498143652.63,15113,23.44,74300.8,16.45,-20.53,-19.99,0,*40
1498143653.88,15114,23.44,74304.3,16.47,-19.81,-19.37,0,*44
1498143655.14,15115,23.44,74304.5,16.49,-21.03,-20.53,0,*42
1498143656.37,15116,23.44,74306.0,16.49,-20.53,-19.91,0,*41
1498143657.61,15117,23.44,74308.5,16.53,-21.87,-21.47,0,*43
1498143658.89,15118,23.44,74308.8,16.51,-22.31,-21.97,0,*4D
1498143660.19,15119,23.44,74308.8,16.51,-21.53,-21.23,0,*44
1498143661.46,15120,23.44,74306.0,16.51,-20.89,-20.53,0,*4E
1498143662.73,15121,23.44,74304.8,16.51,-20.99,-20.69,0,*47
1498143663.98,15122,23.44,74308.0,16.53,-22.21,-21.87,0,*46
1498143665.22,15123,23.44,74310.0,16.53,-21.87,-21.47,0,*44
1498143666.46,15124,23.44,74310.8,16.51,-21.63,-21.17,0,*4E
1498143667.7,15125,23.44,74310.8,16.51,-21.77,-21.39,0,*46
1498143668.96,15126,23.44,74310.5,16.51,-21.03,-20.69,0,*42
1498143670.25,15127,23.44,74310.8,16.51,-20.99,-20.53,0,*48
1498143671.48,15128,23.44,74310.5,16.55,-20.39,-19.91,0,*4D
1498143672.75,15129,23.44,74310.5,16.53,-20.99,-20.49,0,*4F
1498143673.97,15130,23.44,74310.3,16.53,-20.35,-19.75,0,*44
1498143675.22,15131,23.44,74304.3,16.55,-20.49,-20.05,0,*45
1498143676.49,15132,23.44,74304.0,16.59,-21.27,-20.73,0,*42
1498143677.74,15133,23.44,74304.3,16.55,-20.69,-20.19,0,*48
1498143679.0,15134,23.44,74304.3,16.55,-20.49,-19.99,0,*4F
1498143680.26,15135,23.5,74310.8,16.59,-20.89,-20.35,0,*42
1498143681.53,15136,23.44,74308.5,16.59,-19.99,-19.57,0,*44
1498143682.8,15137,23.44,74306.3,16.59,-19.81,-19.27,0,*4B
1498143684.04,15138,23.44,74304.3,16.61,-19.95,-19.65,0,*4C
1498143685.26,15139,23.44,74304.5,16.63,-19.91,-19.47,0,*4B
1498143686.52,15140,23.44,74302.0,16.65,-19.31,-18.93,0,*41
1498143687.77,15141,23.44,74306.0,16.67,-19.07,-18.59,0,*41
1498143689.02,15142,23.44,74304.5,16.67,-19.41,-18.99,0,*4C
1498143690.23,15143,23.44,74306.8,16.69,-20.43,-19.99,0,*4A
1498143691.47,15144,23.44,74304.8,16.71,-20.59,-20.29,0,*4E
1498143692.69,15145,23.44,74306.3,16.69,-20.53,-19.99,0,*4D
1498143693.91,15146,23.44,74304.0,16.69,-20.59,-20.25,0,*49
1498143695.15,15147,23.44,74308.3,16.71,-21.17,-20.89,0,*4C
1498143696.36,15148,23.5,74308.3,16.69,-20.93,-20.43,0,*41
1498143697.58,15149,23.44,74304.8,16.69,-20.43,-20.15,0,*4E
1498143698.82,15150,23.44,74308.5,16.69,-20.93,-20.53,0,*49
1498143700.03,15151,23.44,74304.3,16.69,-20.29,-19.81,0,*4C
1498143701.28,15152,23.44,74306.3,16.71,-20.29,-19.85,0,*42
1498143702.54,15153,23.44,74308.0,16.71,-19.99,-19.61,0,*48
1498143703.78,15154,23.5,74310.0,16.73,-19.81,-19.41,0,*46
1498143705.04,15155,23.44,74304.8,16.73,-20.99,-20.49,0,*46
1498143706.27,15156,23.44,74304.8,16.73,-21.83,-21.47,0,*40
1498143707.48,15157,23.44,74302.5,16.73,-21.13,-20.63,0,*4F
1498143708.73,15158,23.44,74306.5,16.71,-20.09,-19.65,0,*44
1498143709.96,15159,23.44,74300.8,16.75,-19.75,-19.13,0,*41
1498143711.22,15160,23.44,74302.5,16.75,-19.75,-19.27,0,*4C
1498143712.48,15161,23.44,74306.0,16.75,-19.27,-18.79,0,*40
1498143713.73,15162,23.44,74302.3,16.77,-19.75,-19.27,0,*4C
1498143715.01,15163,23.44,74302.3,16.77,-20.15,-19.65,0,*47
1498143716.25,15164,23.44,74306.0,16.81,-19.65,-19.07,0,*40
1498143717.48,15165,23.44,74304.0,16.81,-19.03,-18.45,0,*46
1498143718.72,15166,23.44,74300.5,16.81,-19.17,-18.73,0,*45
1498143719.97,15167,23.44,74304.0,16.85,-19.91,-19.31,0,*49
1498143721.22,15168,23.44,74302.3,16.85,-19.41,-18.83,0,*43
1498143722.42,15169,23.44,74306.0,16.87,-19.91,-19.51,0,*43
1498143723.66,15170,23.5,74306.8,16.87,-19.57,-19.13,0,*47
1498143724.92,15171,23.44,74304.3,16.89,-19.23,-18.79,0,*46
1498143726.18,15172,23.44,74306.0,16.89,-19.27,-18.79,0,*41
1498143727.41,15173,23.5,74308.5,16.89,-18.79,-18.49,0,*49
1498143728.65,15174,23.44,74306.0,16.91,-18.73,-18.31,0,*42
1498143729.91,15175,23.44,74306.5,16.93,-18.83,-18.35,0,*4A
1498143731.11,15176,23.5,74306.8,16.95,-19.37,-19.07,0,*41
1498143732.3,15177,23.5,74308.5,16.95,-20.29,-19.99,0,*42
1498143733.58,15178,23.44,74308.3,16.93,-20.83,-20.53,0,*47
1498143734.82,15179,23.44,74304.8,16.91,-20.53,-20.25,0,*48
1498143736.07,15180,23.44,74304.3,16.95,-19.85,-19.27,0,*43
1498143737.3,15181,23.5,74308.0,16.95,-20.73,-20.49,0,*43
1498143738.55,15182,23.44,74310.3,16.93,-20.05,-19.65,0,*43
1498143739.8,15183,23.44,74306.5,16.93,-20.53,-20.09,0,*41
1498143741.06,15184,23.5,74304.8,16.95,-20.83,-20.49,0,*49
1498143742.3,15185,23.44,74306.8,16.91,-21.23,-20.93,0,*40
1498143743.53,15186,23.44,74308.0,16.91,-20.43,-20.15,0,*4A
1498143744.76,15187,23.44,74306.8,16.93,-21.13,-20.73,0,*4D
1498143745.97,15188,23.44,74306.5,16.91,-19.99,-19.51,0,*43
1498143747.17,15189,23.5,74310.3,16.91,-20.29,-19.99,0,*47
1498143748.42,15190,23.5,74306.8,16.93,-19.41,-19.03,0,*4A
1498143749.64,15191,23.44,74308.3,16.91,-20.15,-19.71,0,*47
1498143750.89,15192,23.44,74304.3,16.93,-20.05,-19.41,0,*44
1498143752.14,15193,23.44,74306.5,16.91,-19.41,-18.93,0,*43
1498143753.37,15194,23.5,74310.0,16.93,-19.47,-19.13,0,*49
1498143754.63,15195,23.5,74306.8,16.95,-19.57,-19.23,0,*4C
1498143755.85,15196,23.5,74308.0,16.93,-19.51,-19.03,0,*4D
1498143757.1,15197,23.5,74304.5,16.97,-19.23,-18.79,0,*41
1498143758.31,15198,23.5,74306.5,16.95,-19.91,-19.37,0,*4E
1498143759.52,15199,23.5,74306.8,16.95,-19.13,-18.69,0,*4F
1498143760.78,15200,23.44,74306.0,16.97,-19.23,-18.65,0,*41
1498143762.01,15201,23.44,74306.5,16.99,-19.75,-19.27,0,*4A
1498143763.22,15202,23.44,74306.5,16.99,-19.95,-19.51,0,*46
1498143764.45,15203,23.44,74304.8,16.99,-20.59,-20.15,0,*47
1498143765.66,15204,23.44,74304.3,16.99,-19.71,-19.17,0,*48
1498143766.9,15205,23.5,74310.3,16.99,-19.23,-18.65,0,*4A
1498143768.14,15206,23.44,74302.5,17.01,-18.73,-18.55,0,*4E
1498143769.39,15207,23.5,74306.0,17.01,-20.05,-19.65,0,*47
1498143770.65,15208,23.5,74308.8,17.01,-20.19,-19.81,0,*4F
1498143771.88,15209,23.5,74310.8,17.01,-19.75,-19.51,0,*43
1498143773.12,15210,23.5,74306.0,17.05,-19.81,-19.37,0,*44
1498143774.37,15211,23.44,74304.0,17.01,-19.65,-19.37,0,*4B
1498143775.64,15212,23.44,74306.5,17.01,-19.31,-18.89,0,*4D
1498143776.86,15213,23.5,74310.8,17.01,-18.73,-18.25,0,*4D
1498143778.06,15214,23.44,74306.0,17.07,-18.65,-18.17,0,*4A
1498143779.26,15215,23.44,74304.5,17.07,-18.65,-18.17,0,*4B
1498143780.49,15216,23.5,74306.8,17.09,-19.71,-19.27,0,*40
1498143781.73,15217,23.44,74306.5,17.09,-19.95,-19.57,0,*4C
1498143782.99,15218,23.44,74304.3,17.09,-19.65,-19.27,0,*4B
1498143784.22,15219,23.5,74306.5,17.11,-19.03,-18.49,0,*4A
1498143785.44,15220,23.5,74304.5,17.11,-19.51,-19.07,0,*4C
1498143786.67,15221,23.44,74304.5,17.11,-19.51,-19.07,0,*4D
1498143787.87,15222,23.5,74304.3,17.13,-20.05,-19.71,0,*46
1498143789.13,15223,23.44,74304.8,17.11,-19.65,-19.37,0,*4B
1498143790.38,15224,23.44,74306.8,17.11,-18.49,-18.01,0,*47
1498143791.62,15225,23.5,74306.8,17.13,-18.73,-18.31,0,*4E
1498143792.87,15226,23.5,74306.0,17.15,-20.15,-19.91,0,*4B
1498143794.1,15227,23.44,74306.5,17.13,-20.83,-20.29,0,*4A
1498143795.33,15228,23.5,74306.8,17.13,-19.37,-18.89,0,*41
1498143796.56,15229,23.5,74306.8,17.13,-18.89,-18.45,0,*44
1498143797.82,15230,23.5,74306.0,17.15,-19.61,-19.17,0,*4B
1498143799.08,15231,23.5,74306.0,17.15,-19.61,-19.03,0,*4F
1498143800.28,15232,23.5,74306.8,17.13,-19.37,-19.03,0,*49
1498143801.52,15233,23.5,74304.3,17.13,-19.95,-19.61,0,*44
1498143802.77,15234,23.44,74306.0,17.15,-19.57,-19.07,0,*4B
1498143804.03,15235,23.5,74306.5,17.15,-19.27,-18.83,0,*40
1498143805.26,15236,23.5,74308.8,17.15,-19.07,-18.65,0,*49
1498143806.5,15237,23.5,74306.0,17.15,-18.69,-18.17,0,*44
1498143807.7,15238,23.44,74304.8,17.17,-18.69,-18.21,0,*4C
1498143808.95,15239,23.5,74306.3,17.19,-18.49,-17.97,0,*43
1498143810.18,15240,23.5,74310.0,17.21,-18.59,-18.07,0,*41
1498143811.43,15241,23.5,74308.5,17.23,-19.07,-18.59,0,*43
1498143812.7,15242,23.5,74306.5,17.23,-19.81,-19.31,0,*41
1498143813.95,15243,23.44,74304.3,17.23,-19.23,-18.83,0,*40
1498143815.21,15244,23.44,74306.0,17.23,-19.61,-19.17,0,*4D
1498143816.43,15245,23.5,74308.3,17.21,-19.81,-19.47,0,*45
1498143817.67,15246,23.5,74310.5,17.27,-20.05,-19.81,0,*4C
1498143818.93,15247,23.5,74306.0,17.23,-19.23,-18.73,0,*4B
1498143820.17,15248,23.5,74306.8,17.23,-18.45,-17.83,0,*45
1498143821.42,15249,23.5,74310.8,17.29,-18.59,-18.01,0,*46
1498143822.62,15250,23.5,74308.5,17.29,-18.73,-18.17,0,*41
1498143823.85,15251,23.5,74310.3,17.29,-19.41,-18.99,0,*46
1498143825.08,15252,23.5,74310.0,17.31,-20.59,-19.99,0,*4E
1498143826.33,15253,23.5,74308.0,17.29,-19.41,-18.89,0,*45
1498143827.56,15254,23.5,74308.8,17.29,-19.37,-18.59,0,*4E
1498143828.79,15255,23.5,74310.0,17.29,-20.05,-19.57,0,*4B
1498143830.03,15256,23.5,74310.5,17.31,-21.13,-20.89,0,*4E
1498143831.29,15257,23.5,74310.0,17.27,-20.83,-20.25,0,*46
1498143832.5,15258,23.5,74310.8,17.29,-20.59,-19.95,0,*41
1498143833.7,15259,23.44,74304.8,17.29,-19.71,-18.99,0,*4D
1498143834.95,15260,23.5,74310.0,17.29,-19.27,-18.73,0,*40
1498143836.21,15261,23.5,74310.8,17.29,-19.57,-18.93,0,*48
1498143837.42,15262,23.5,74306.5,17.29,-19.37,-18.73,0,*43
1498143838.65,15263,23.5,74306.3,17.31,-19.07,-18.49,0,*41
1498143839.88,15264,23.5,74310.3,17.33,-18.73,-18.01,0,*4A
1498143841.1,15265,23.5,74310.3,17.33,-18.69,-17.93,0,*44
1498143842.36,15266,23.5,74310.0,17.35,-21.27,-20.69,0,*40
1498143843.62,15267,23.5,74310.0,17.35,-21.17,-20.49,0,*40
1498143844.85,15268,23.5,74308.5,17.31,-20.05,-19.37,0,*4A
1498143846.1,15269,23.5,74308.3,17.33,-19.31,-18.59,0,*4D
1498143847.3,15270,23.5,74308.5,17.33,-19.17,-18.69,0,*42
1498143848.58,15271,23.5,74308.5,17.35,-21.27,-20.79,0,*47
1498143849.81,15272,23.5,74306.8,17.33,-21.03,-20.29,0,*41
1498143851.01,15273,23.5,74306.5,17.33,-22.03,-21.47,0,*4A
1498143852.28,15274,23.5,74308.8,17.31,-22.53,-21.87,0,*46
1498143853.5,15275,23.5,74310.0,17.27,-22.87,-22.27,0,*40
1498143854.76,15276,23.5,74304.3,17.27,-23.53,-22.87,0,*41
1498143856.01,15277,23.5,74306.3,17.21,-21.33,-20.53,0,*49
1498143857.23,15278,23.5,74304.8,17.21,-21.47,-20.59,0,*4F
1498143858.49,15279,23.5,74306.3,17.21,-21.53,-20.83,0,*4C
1498143859.69,15280,23.5,74306.0,17.21,-22.11,-21.47,0,*46
1498143860.93,15281,23.5,74304.3,17.21,-20.83,-19.95,0,*4A
1498143862.17,15282,23.5,74304.3,17.21,-19.81,-18.89,0,*4D
1498143863.42,15283,23.5,74302.8,17.21,-19.23,-18.59,0,*49
1498143864.62,15284,23.5,74300.5,17.21,-20.09,-19.37,0,*45
1498143865.84,15285,23.5,74300.0,17.19,-19.95,-19.07,0,*43
1498143867.1,15286,23.5,74304.5,17.23,-19.81,-18.89,0,*4B
1498143868.32,15287,23.5,74304.0,17.23,-19.91,-18.99,0,*4A
1498143869.58,15288,23.5,74304.8,17.23,-19.61,-18.73,0,*4E
1498143870.82,15289,23.5,74306.0,17.23,-21.47,-20.73,0,*4B
1498143872.08,15290,23.5,74306.5,17.23,-20.59,-19.65,0,*40
1498143873.31,15291,23.5,74308.0,17.23,-21.09,-20.25,0,*4B
1498143874.55,15292,23.5,74306.8,17.27,-21.17,-20.39,0,*4E
1498143875.8,15293,23.5,74304.0,17.23,-20.53,-19.47,0,*49
1498143877.06,15294,23.5,74306.3,17.23,-19.81,-18.89,0,*48
1498143878.32,15295,23.5,74306.8,17.23,-19.81,-18.89,0,*49
1498143879.57,15296,23.5,74306.8,17.27,-19.41,-18.41,0,*46
1498143880.8,15297,23.5,74300.5,17.27,-19.71,-18.83,0,*4A
1498143882.05,15298,23.5,74306.8,17.27,-19.61,-18.83,0,*44
1498143883.25,15299,23.5,74304.5,17.29,-20.05,-19.13,0,*4B
1498143884.51,15300,23.5,74310.0,17.27,-19.27,-18.49,0,*40
1498143885.77,15301,23.5,74308.3,17.27,-21.47,-20.53,0,*4C
1498143887.0,15302,23.5,74308.0,17.29,-20.15,-19.13,0,*49
1498143888.23,15303,23.5,74308.5,17.29,-21.13,-20.19,0,*4F
1498143889.46,15304,23.5,74306.0,17.29,-21.57,-20.73,0,*44
1498143890.69,15305,23.5,74310.3,17.29,-20.93,-20.15,0,*4C
1498143891.89,15306,23.5,74310.3,17.29,-20.93,-19.99,0,*41
1498143893.15,15307,23.5,74310.8,17.27,-20.83,-20.05,0,*40
1498143894.41,15308,23.5,74310.5,17.27,-21.27,-20.39,0,*4F
1498143895.68,15309,23.5,74310.3,17.27,-20.35,-19.41,0,*49
1498143896.91,15310,23.5,74310.0,17.27,-20.63,-19.75,0,*45
1498143898.16,15311,23.5,74308.5,17.23,-23.29,-22.41,0,*42
1498143899.39,15312,23.5,74310.8,17.21,-24.21,-23.39,0,*42
1498143900.58,15313,23.5,74310.0,17.17,-22.67,-21.73,0,*4E
1498143901.78,15314,23.5,74308.5,17.17,-20.93,-19.91,0,*47
1498143903.0,15315,23.5,74310.3,17.17,-21.09,-20.15,0,*42
1498143904.25,15316,23.5,74310.0,17.17,-22.21,-21.33,0,*4D
1498143905.48,15317,23.5,74312.8,17.17,-23.95,-22.97,0,*4F
1498143906.71,15318,23.5,74312.3,17.13,-23.99,-22.93,0,*4C
1498143907.97,15319,23.5,74308.0,17.11,-22.77,-21.43,0,*40
1498143909.2,15320,23.5,74308.8,17.09,-20.93,-19.65,0,*44
1498143910.43,15321,23.5,74310.0,17.11,-19.71,-18.65,0,*4B
1498143911.66,15322,23.5,74308.8,17.13,-19.81,-18.73,0,*42
1498143912.94,15323,23.5,74308.3,17.11,-20.79,-19.41,0,*4C
1498143914.13,15324,23.5,74310.8,17.13,-20.29,-19.13,0,*4B
1498143915.36,15325,23.5,74310.3,17.13,-19.65,-18.41,0,*4E
1498143916.63,15326,23.5,74312.0,17.15,-19.31,-18.07,0,*48
1498143917.86,15327,23.5,74308.3,17.15,-19.47,-18.21,0,*4C
1498143919.06,15328,23.5,74310.0,17.17,-19.71,-18.41,0,*42
1498143920.29,15329,23.5,74310.3,17.19,-19.95,-18.73,0,*46
1498143921.49,15330,23.5,74306.3,17.17,-22.53,-21.13,0,*4E
1498143922.69,15331,23.5,74312.0,17.17,-21.09,-19.75,0,*48
1498143923.91,15332,23.5,74308.3,17.17,-21.17,-19.85,0,*4B
1498143925.13,15333,23.5,74312.8,17.13,-21.77,-20.39,0,*45
1498143926.36,15334,23.5,74310.0,17.13,-22.47,-21.39,0,*43
1498143927.62,15335,23.5,74314.3,17.13,-22.17,-20.99,0,*4C
1498143928.88,15336,23.5,74308.0,17.11,-22.47,-21.43,0,*4E
1498143930.11,15337,23.5,74306.8,17.11,-22.97,-21.73,0,*41
1498143931.32,15338,23.5,74304.5,17.07,-22.57,-21.47,0,*42
1498143932.57,15339,23.5,74308.0,17.05,-22.87,-21.83,0,*44
1498143933.82,15340,23.5,74308.0,17.05,-22.87,-21.67,0,*40
1498143935.04,15341,23.5,74308.5,17.05,-22.27,-21.13,0,*48
1498143936.28,15342,23.5,74304.5,16.99,-22.57,-21.53,0,*4C
1498143937.49,15343,23.5,74306.0,16.99,-21.43,-20.73,0,*48
1498143938.75,15344,23.5,74302.8,16.99,-21.33,-20.49,0,*41
1498143939.99,15345,23.5,74304.8,16.99,-22.37,-21.83,0,*40
1498143941.22,15346,23.5,74306.0,16.97,-21.93,-21.39,0,*41
1498143942.45,15347,23.5,74304.3,16.95,-21.73,-21.27,0,*43
1498143943.7,15348,23.5,74304.0,16.91,-21.33,-20.89,0,*49
1498143944.97,15349,23.5,74306.3,16.93,-21.27,-21.03,0,*4C
1498143946.23,15350,23.5,74304.8,16.93,-21.67,-21.77,0,*43
1498143947.49,15351,23.5,74300.8,16.91,-21.53,-21.57,0,*45
1498143948.72,15352,23.5,74300.8,16.91,-20.93,-21.03,0,*4A
1498143949.94,15353,23.5,74304.5,16.91,-19.95,-20.25,0,*42
1498143951.18,15354,23.5,74306.8,16.91,-20.93,-21.23,0,*4E
1498143952.43,15355,23.5,74304.3,16.91,-20.79,-21.53,0,*4C
1498143953.63,15356,23.5,74306.5,16.87,-22.67,-23.59,0,*4D
1498143954.87,15357,23.5,74306.3,16.87,-23.19,-24.31,0,*4D
1498143956.07,15358,23.5,74306.5,16.83,-22.87,-23.89,0,*44
1498143957.3,15359,23.5,74306.5,16.83,-22.37,-23.53,0,*49
1498143958.55,15360,23.5,74304.0,16.77,-22.67,-23.99,0,*4B
1498143959.8,15361,23.5,74308.0,16.73,-22.77,-23.99,0,*4F
1498143961.06,15362,23.5,74306.8,16.73,-21.97,-23.19,0,*49
1498143962.31,15363,23.5,74310.0,16.73,-21.97,-23.23,0,*41
1498143963.57,15364,23.5,74308.0,16.71,-21.87,-23.09,0,*4D
1498143964.78,15365,23.5,74308.0,16.69,-21.63,-22.63,0,*42
1498143966.01,15366,23.5,74304.5,16.69,-21.17,-22.31,0,*45
1498143967.25,15367,23.5,74308.3,16.69,-19.51,-20.53,0,*4B
1498143968.5,15368,23.5,74306.0,16.69,-19.23,-20.15,0,*43
1498143969.76,15369,23.5,74302.8,16.71,-18.69,-19.65,0,*49
1498143971.0,15370,23.5,74302.0,16.73,-19.57,-20.63,0,*43
1498143972.23,15371,23.5,74304.3,16.73,-19.47,-20.35,0,*40
1498143973.51,15372,23.5,74300.8,16.75,-19.41,-20.49,0,*48
1498143974.74,15373,23.5,74300.3,16.73,-20.05,-21.03,0,*4A
1498143976.0,15374,23.5,74302.5,16.75,-19.95,-20.83,0,*41
1498143977.23,15375,23.5,74300.8,16.75,-19.71,-20.69,0,*4E
1498143978.46,15376,23.5,74304.0,16.73,-19.71,-20.79,0,*4A
1498143979.71,15377,23.5,74302.5,16.75,-19.95,-20.89,0,*48
1498143980.95,15378,23.5,74300.0,16.73,-19.71,-20.49,0,*47
1498143982.21,15379,23.5,74298.8,16.75,-19.31,-20.09,0,*40
1498143983.47,15380,23.5,74302.0,16.73,-19.57,-20.35,0,*4F
1498143984.7,15381,23.5,74298.5,16.75,-19.75,-20.63,0,*4B
1498143985.96,15382,23.5,74300.3,16.75,-19.47,-20.19,0,*44
1498143987.19,15383,23.5,74302.3,16.75,-20.39,-21.17,0,*49
1498143988.45,15384,23.5,74302.8,16.77,-20.93,-21.67,0,*4B
1498143989.71,15385,23.5,74298.0,16.77,-20.49,-21.39,0,*46
1498143990.97,15386,23.5,74302.5,16.75,-20.39,-21.03,0,*49
1498143992.22,15387,23.5,74302.3,16.75,-20.53,-21.17,0,*41
1498143993.48,15388,23.5,74300.0,16.75,-20.49,-21.13,0,*41
1498143994.71,15389,23.5,74300.0,16.73,-20.83,-21.47,0,*41
1498143995.93,15390,23.5,74302.8,16.75,-21.13,-21.43,0,*43
1498143997.14,15391,23.5,74300.8,16.73,-20.89,-21.43,0,*46
1498143998.34,15392,23.5,74300.3,16.73,-21.17,-21.43,0,*43
1498143999.57,15393,23.5,74304.3,16.73,-20.69,-20.99,0,*4C
1498144000.8,15394,23.5,74304.3,16.73,-20.69,-20.99,0,*4B
1498144002.06,15395,23.5,74304.5,16.75,-20.49,-20.69,0,*41
1498144003.25,15396,23.5,74304.5,16.73,-21.43,-21.73,0,*45
1498144004.45,15397,23.5,74304.3,16.73,-22.11,-22.41,0,*42
1498144005.71,15398,23.5,74306.0,16.71,-21.87,-22.03,0,*45
1498144006.93,15399,23.5,74304.0,16.71,-23.39,-23.59,0,*4D
1498144008.13,15400,23.5,74306.3,16.69,-23.89,-24.05,0,*46
1498144009.41,15401,23.5,74304.0,16.67,-23.99,-24.11,0,*4D
1498144010.64,15402,23.5,74302.5,16.65,-21.87,-21.77,0,*44
1498144011.84,15403,23.5,74302.0,16.65,-21.43,-21.43,0,*4A
1498144013.08,15404,23.5,74302.8,16.63,-21.09,-20.89,0,*42
1498144014.33,15405,23.5,74302.5,16.63,-20.83,-20.73,0,*45
1498144015.56,15406,23.5,74302.0,16.65,-21.77,-21.57,0,*4D
1498144016.76,15407,23.5,74304.0,16.65,-22.07,-21.93,0,*40
1498144017.96,15408,23.5,74302.0,16.65,-21.93,-21.73,0,*4F
1498144019.21,15409,23.5,74302.5,16.63,-22.47,-22.41,0,*40
1498144020.44,15410,23.5,74302.0,16.63,-22.57,-22.41,0,*49
1498144021.64,15411,23.5,74302.0,16.61,-22.63,-22.57,0,*4A
1498144022.9,15412,23.5,74306.0,16.61,-22.47,-22.31,0,*4F
1498144024.12,15413,23.5,74306.0,16.59,-22.07,-21.73,0,*44
1498144025.36,15414,23.5,74302.3,16.59,-22.93,-22.63,0,*4C
1498144026.6,15415,23.5,74302.0,16.59,-22.97,-22.63,0,*49
1498144027.85,15416,23.5,74296.8,16.55,-22.73,-22.57,0,*4B
1498144029.14,15417,23.5,74294.8,16.59,-21.97,-21.53,0,*48
1498144030.37,15418,23.5,74296.5,16.55,-21.47,-21.13,0,*42
1498144031.62,15419,23.5,74294.3,16.55,-21.43,-20.99,0,*44
1498144032.88,15420,23.5,74290.8,16.55,-21.43,-20.83,0,*45
1498144034.15,15421,23.5,74290.8,16.59,-20.19,-19.81,0,*4E
1498144035.41,15422,23.5,74292.5,16.59,-19.71,-19.23,0,*41
1498144036.63,15423,23.5,74296.3,16.65,-19.41,-18.83,0,*47
1498144037.86,15424,23.5,74296.8,16.63,-19.95,-19.51,0,*41
1498144039.14,15425,23.5,74298.5,16.63,-20.15,-19.61,0,*41
1498144040.36,15426,23.5,74298.0,16.65,-19.81,-19.37,0,*40
1498144041.59,15427,23.5,74296.5,16.67,-19.99,-19.37,0,*4A
1498144042.85,15428,23.5,74296.8,16.67,-19.91,-19.41,0,*4C
1498144044.05,15429,23.5,74298.8,16.69,-20.25,-19.75,0,*41
1498144045.28,15430,23.5,74300.0,16.71,-20.39,-19.75,0,*4D
1498144046.52,15431,23.5,74296.3,16.71,-20.73,-20.25,0,*4D
1498144047.75,15432,23.5,74302.3,16.69,-20.43,-19.85,0,*44
1498144049.0,15433,23.5,74302.3,16.71,-19.61,-19.03,0,*48
1498144050.23,15434,23.5,74298.3,16.73,-19.91,-19.41,0,*44
1498144051.46,15435,23.5,74296.8,16.73,-21.47,-21.03,0,*48
1498144052.68,15436,23.5,74296.0,16.73,-22.07,-21.57,0,*4D
1498144053.92,15437,23.5,74302.3,16.71,-22.73,-22.41,0,*49
1498144055.13,15438,23.5,74298.8,16.69,-22.83,-22.57,0,*47
1498144056.35,15439,23.5,74302.0,16.69,-23.23,-22.83,0,*44
1498144057.59,15440,23.5,74296.5,16.65,-22.21,-21.77,0,*4D
1498144058.81,15441,23.5,74296.8,16.65,-21.17,-20.79,0,*45
1498144060.07,15442,23.5,74296.0,16.67,-20.59,-20.15,0,*45
1498144061.36,15443,23.5,74294.8,16.67,-21.57,-21.23,0,*4F
1498144062.6,15444,23.5,74298.3,16.65,-20.49,-19.95,0,*42
1498144063.82,15445,23.5,74296.3,16.65,-19.85,-19.47,0,*46
1498144065.07,15446,23.5,74296.3,16.67,-20.29,-19.81,0,*41
1498144066.32,15447,23.5,74294.8,16.71,-20.59,-20.15,0,*47
1498144067.56,15448,23.5,74294.5,16.71,-20.73,-20.25,0,*43
1498144068.76,15449,23.5,74296.8,16.69,-21.09,-20.59,0,*4C
1498144069.99,15450,23.5,74294.0,16.69,-21.47,-21.03,0,*40
1498144071.2,15451,23.5,74298.3,16.69,-20.89,-20.29,0,*4B
1498144072.4,15452,23.5,74296.3,16.69,-21.09,-20.69,0,*45
1498144073.66,15453,23.5,74296.8,16.69,-21.87,-21.53,0,*4A
1498144074.85,15454,23.5,74296.5,16.69,-22.83,-22.41,0,*4A
1498144076.13,15455,23.5,74298.8,16.67,-23.03,-22.73,0,*4D
1498144077.37,15456,23.5,74298.8,16.67,-22.53,-21.93,0,*47
1498144078.6,15457,23.5,74298.3,16.65,-22.21,-21.73,0,*4F
1498144079.86,15458,23.5,74296.3,16.65,-21.03,-20.53,0,*40
1498144081.08,15459,23.5,74292.8,16.63,-21.39,-21.09,0,*40
1498144082.34,15460,23.5,74296.3,16.63,-21.67,-20.69,0,*46
1498144083.59,15461,23.5,74292.0,16.65,-20.53,-19.85,0,*4F
1498144084.82,15462,23.5,74296.8,16.65,-20.93,-20.49,0,*4A
1498144086.03,15463,23.5,74296.8,16.65,-21.13,-20.63,0,*4A
1498144087.24,15464,23.5,74296.8,16.65,-21.13,-20.63,0,*4D
1498144088.47,15465,23.5,74298.3,16.65,-21.77,-21.33,0,*4A
1498144089.73,15466,23.5,74298.5,16.65,-21.33,-20.83,0,*43
1498144090.96,15467,23.5,74296.8,16.65,-20.93,-20.49,0,*4F
1498144092.17,15468,23.5,74296.0,16.65,-21.63,-21.13,0,*40
1498144093.45,15469,23.5,74298.0,16.63,-21.67,-21.23,0,*40
1498144094.69,15470,23.5,74300.5,16.61,-21.63,-21.23,0,*4E
1498144095.94,15471,23.5,74298.5,16.65,-21.27,-20.79,0,*45
1498144097.17,15472,23.5,74302.0,16.61,-21.47,-20.83,0,*41
1498144098.4,15473,23.5,74302.8,16.61,-21.47,-20.99,0,*4B
1498144099.66,15474,23.5,74300.3,16.61,-21.53,-21.03,0,*4B
1498144100.87,15475,23.5,74298.5,16.61,-20.73,-20.29,0,*40